DB0TGO-14 Weather Reports


time (UTC)temp
C
wind
direction
speed
KPH
gust
KPH
rain 1hr
cm
rain 24hr
cm
rain mn
cm
humidity
%
barometer
mb
20260505041708 13 45 1.6 4.8 0.00 0.00 0.00 91 1010.9
20260505041519 13 45 0.0 4.8 0.00 0.00 0.00 91 1010.9
20260505041335 13 22 0.0 1.6 0.00 0.00 0.00 90 1011.0
20260505041150 13 22 0.0 3.2 0.00 0.00 0.00 90 1011.1
20260505040947 13 22 0.0 3.2 0.00 0.00 0.00 90 1011.1
20260505040750 13 22 0.0 3.2 0.00 0.00 0.00 90 1011.1
20260505040605 13 22 1.6 3.2 0.00 0.00 0.00 90 1011.2
20260505040425 13 22 1.6 3.2 0.00 0.00 0.00 90 1011.1
20260505040412 13 22 1.6 3.2 0.00 0.00 0.00 89 1011.2
20260505040244 13 22 1.6 3.2 0.00 0.00 0.00 89 1011.2
20260505040050 13 22 1.6 3.2 0.00 0.00 0.00 89 1011.2
20260505035905 13 22 3.2 4.8 0.00 0.00 0.00 89 1011.3
20260505035725 13 292 3.2 4.8 0.00 0.00 0.00 89 1011.2
20260505035539 13 292 3.2 4.8 0.00 0.00 0.00 89 1011.3
20260505035349 13 270 3.2 4.8 0.00 0.00 0.00 89 1011.2
20260505035153 13 270 1.6 4.8 0.00 0.00 0.00 89 1011.2
20260505035010 13 270 1.6 4.8 0.00 0.00 0.00 89 1011.2
20260505034842 13 45 0.0 3.2 0.00 0.00 0.00 88 1011.1
20260505034830 13 45 0.0 3.2 0.00 0.00 0.00 88 1011.0
20260505034645 13 45 0.0 1.6 0.00 0.00 0.00 88 1011.0
20260505034449 13 45 1.6 1.6 0.00 0.00 0.00 88 1011.0
20260505034255 13 45 1.6 1.6 0.00 0.00 0.00 87 1010.9
20260505034110 13 45 3.2 4.8 0.00 0.00 0.00 87 1010.9
20260505033910 13 45 3.2 4.8 0.00 0.00 0.00 87 1010.8
20260505033725 14 45 3.2 9.7 0.00 0.00 0.00 86 1010.9
20260505033537 14 45 3.2 9.7 0.00 0.00 0.00 86 1010.9
20260505033344 14 22 3.2 9.7 0.00 0.00 0.00 85 1010.9
20260505033145 14 45 1.6 6.4 0.00 0.00 0.00 86 1010.8
20260505033102 14 45 1.6 4.8 0.00 0.00 0.00 85 1010.8
20260505032945 14 45 1.6 4.8 0.00 0.00 0.00 85 1010.8
20260505032756 14 45 1.6 8.0 0.00 0.00 0.00 84 1010.8
20260505032601 14 45 3.2 8.0 0.00 0.00 0.00 84 1010.8
20260505032420 14 45 3.2 8.0 0.00 0.00 0.00 84 1010.9
20260505032235 14 90 3.2 9.7 0.00 0.00 0.00 84 1011.0
20260505032049 14 90 4.8 9.7 0.00 0.00 0.00 84 1010.9
20260505031856 14 112 4.8 9.7 0.00 0.00 0.00 84 1010.9
20260505031717 14 45 4.8 9.7 0.00 0.00 0.00 84 1010.9
20260505031535 14 0 4.8 9.7 0.00 0.00 0.00 84 1010.9
20260505031345 14 45 4.8 9.7 0.00 0.00 0.00 84 1010.9
20260505031156 14 0 4.8 8.0 0.00 0.00 0.00 85 1011.0
20260505031010 14 45 4.8 9.7 0.00 0.00 0.00 85 1011.0
20260505030825 14 22 4.8 9.7 0.00 0.00 0.00 85 1011.0
20260505030640 14 338 4.8 9.7 0.00 0.00 0.00 84 1011.0
20260505030459 14 45 4.8 8.0 0.00 0.00 0.00 84 1011.1
20260505030320 14 22 4.8 8.0 0.00 0.00 0.00 84 1011.1
20260505030140 14 22 4.8 8.0 0.00 0.00 0.00 84 1011.2
20260505025959 14 22 4.8 8.0 0.00 0.00 0.00 84 1011.2
20260505025821 14 68 3.2 8.0 0.00 0.00 0.00 84 1011.2
20260505025634 14 68 3.2 8.0 0.00 0.00 0.00 84 1011.2
20260505025455 14 0 3.2 8.0 0.00 0.00 0.00 84 1011.2
20260505025315 14 45 3.2 8.0 0.00 0.00 0.00 84 1011.3
20260505025120 14 45 3.2 8.0 0.00 0.00 0.00 84 1011.3
20260505024925 14 22 1.6 8.0 0.00 0.00 0.00 84 1011.3
20260505024745 14 22 1.6 8.0 0.00 0.00 0.00 84 1011.3
20260505024548 14 22 1.6 8.0 0.00 0.00 0.00 84 1011.3
20260505024400 14 45 1.6 8.0 0.00 0.00 0.00 84 1011.3
20260505024202 14 45 1.6 8.0 0.00 0.00 0.00 84 1011.3
20260505024025 14 45 1.6 8.0 0.00 0.00 0.00 84 1011.3
20260505023825 14 45 1.6 8.0 0.00 0.00 0.00 84 1011.3
20260505023753 14 22 1.6 3.2 0.00 0.00 0.00 84 1011.3
20260505023634 14 22 1.6 3.2 0.00 0.00 0.00 84 1011.4
20260505023455 14 22 1.6 3.2 0.00 0.00 0.00 84 1011.4
20260505023319 14 22 1.6 6.4 0.00 0.00 0.00 84 1011.5
20260505023119 14 22 1.6 8.0 0.00 0.00 0.00 84 1011.4
20260505022925 14 22 1.6 8.0 0.00 0.00 0.00 84 1011.5
20260505022735 14 22 1.6 3.2 0.00 0.00 0.00 84 1011.4
20260505022555 14 45 1.6 4.8 0.00 0.00 0.00 84 1011.5
20260505022200 14 22 1.6 4.8 0.00 0.00 0.00 84 1011.6
20260505022000 14 315 0.0 3.2 0.00 0.00 0.00 84 1011.5
20260505021947 14 315 1.6 3.2 0.00 0.00 0.00 84 1011.5
20260505021822 14 45 1.6 3.2 0.00 0.00 0.00 84 1011.5
20260505021627 14 45 1.6 3.2 0.00 0.00 0.00 84 1011.5
20260505021437 14 45 1.6 3.2 0.00 0.00 0.00 83 1011.5
20260505021245 14 45 1.6 4.8 0.00 0.00 0.00 83 1011.6
20260505021046 14 45 1.6 4.8 0.00 0.00 0.00 83 1011.6
20260505020855 14 45 1.6 4.8 0.00 0.00 0.00 83 1011.6
20260505020703 14 45 3.2 8.0 0.00 0.00 0.00 83 1011.7
20260505020515 14 45 3.2 8.0 0.00 0.00 0.00 83 1011.6
20260505020325 14 45 3.2 8.0 0.00 0.00 0.00 83 1011.6
20260505020136 14 22 3.2 8.0 0.00 0.00 0.00 83 1011.6
20260505015940 14 22 3.2 11.3 0.00 0.00 0.00 83 1011.6
20260505015745 14 45 3.2 11.3 0.00 0.00 0.00 83 1011.6
20260505015545 14 68 3.2 11.3 0.00 0.00 0.00 83 1011.6
20260505015356 14 68 3.2 3.2 0.00 0.00 0.00 83 1011.6
20260505015210 14 292 3.2 3.2 0.00 0.00 0.00 83 1011.6
20260505015021 14 292 3.2 8.0 0.00 0.00 0.00 83 1011.6
20260505014825 14 292 4.8 8.0 0.00 0.00 0.00 83 1011.7
20260505014625 14 292 4.8 8.0 0.00 0.00 0.00 83 1011.7
20260505014434 14 22 4.8 8.0 0.00 0.00 0.00 83 1011.6
20260505014404 15 22 4.8 8.0 0.00 0.00 0.00 83 1011.7
20260505014255 15 45 4.8 8.0 0.00 0.00 0.00 83 1011.6
20260505014110 15 45 4.8 8.0 0.00 0.00 0.00 83 1011.7
20260505013915 15 22 4.8 8.0 0.00 0.00 0.00 83 1011.8
20260505013720 15 292 4.8 8.0 0.00 0.00 0.00 83 1011.8
20260505013530 15 292 4.8 8.0 0.00 0.00 0.00 83 1011.9
20260505013350 15 315 3.2 8.0 0.00 0.00 0.00 83 1011.8
20260505013154 15 292 3.2 8.0 0.00 0.00 0.00 82 1011.8
20260505013000 15 292 3.2 8.0 0.00 0.00 0.00 82 1011.8
20260505012825 15 315 3.2 3.2 0.00 0.00 0.00 82 1011.7
20260505012644 15 338 4.8 8.0 0.00 0.00 0.00 82 1011.7
20260505012555 15 338 4.8 8.0 0.00 0.00 0.00 82 1011.7
20260505012507 15 292 6.4 8.0 0.00 0.00 0.00 82 1011.8
20260505012321 15 292 6.4 8.0 0.00 0.00 0.00 82 1011.9
20260505012130 15 270 4.8 9.7 0.00 0.00 0.00 82 1011.8
20260505011931 15 202 4.8 9.7 0.00 0.00 0.00 81 1011.9
20260505011742 15 292 3.2 9.7 0.00 0.00 0.00 81 1011.8
20260505011545 15 270 3.2 8.0 0.00 0.00 0.00 81 1011.7
20260505011405 15 248 1.6 6.4 0.00 0.00 0.00 82 1011.7
20260505011217 15 68 1.6 3.2 0.00 0.00 0.00 81 1011.6
20260505011023 15 68 3.2 8.0 0.00 0.00 0.00 81 1011.5
20260505010830 15 68 3.2 8.0 0.00 0.00 0.00 81 1011.5
20260505010645 15 68 3.2 8.0 0.00 0.00 0.00 81 1011.5
20260505010500 15 112 3.2 8.0 0.00 0.00 0.00 81 1011.5
20260505010310 15 45 3.2 6.4 0.00 0.00 0.00 81 1011.5
20260505010120 15 68 3.2 6.4 0.00 0.00 0.00 81 1011.5
20260505005925 15 68 4.8 9.7 0.00 0.00 0.00 81 1011.5
20260505005735 15 68 4.8 9.7 0.00 0.00 0.00 81 1011.5
20260505005556 15 68 4.8 9.7 0.00 0.00 0.00 81 1011.5
20260505005512 15 68 4.8 9.7 0.00 0.00 0.00 81 1011.5
20260505005420 15 68 4.8 9.7 0.00 0.00 0.00 81 1011.5
20260505005220 15 68 4.8 9.7 0.00 0.00 0.00 81 1011.7
20260505005038 15 68 4.8 9.7 0.00 0.00 0.00 81 1011.6
20260505004845 15 68 4.8 9.7 0.00 0.00 0.00 81 1011.6
20260505004651 15 68 4.8 9.7 0.00 0.00 0.00 81 1011.6
20260505004454 15 68 4.8 9.7 0.00 0.00 0.00 81 1011.6
20260505004320 15 90 3.2 9.7 0.00 0.00 0.00 81 1011.6
20260505004139 15 68 3.2 8.0 0.00 0.00 0.00 81 1011.5
20260505003940 15 68 3.2 8.0 0.00 0.00 0.00 81 1011.6
20260505003921 15 45 3.2 6.4 0.00 0.00 0.00 81 1011.6
20260505003740 15 45 3.2 6.4 0.00 0.00 0.00 81 1011.7
20260505003600 15 68 3.2 6.4 0.00 0.00 0.00 81 1011.7
20260505003410 15 45 3.2 8.0 0.00 0.00 0.00 81 1011.7
20260505003230 15 45 3.2 8.0 0.00 0.00 0.00 81 1011.7
20260505003028 15 45 3.2 8.0 0.00 0.00 0.00 81 1011.8
20260505002840 15 68 3.2 8.0 0.00 0.00 0.00 81 1011.8
20260505002651 15 68 3.2 8.0 0.00 0.00 0.00 81 1011.8
20260505002511 15 68 4.8 8.0 0.00 0.00 0.00 81 1011.9
20260505002335 15 90 4.8 8.0 0.00 0.00 0.00 81 1012.0
20260505002311 15 68 4.8 8.0 0.00 0.00 0.00 81 1011.9
20260505002139 15 68 4.8 8.0 0.00 0.00 0.00 81 1012.0
20260505002000 15 68 4.8 8.0 0.00 0.00 0.00 81 1011.9
20260505001820 15 90 4.8 8.0 0.00 0.00 0.00 81 1011.9
20260505001625 15 68 4.8 8.0 0.00 0.00 0.00 81 1011.9
20260505001435 15 68 4.8 8.0 0.00 0.00 0.00 81 1011.9
20260505001235 15 68 3.2 8.0 0.00 0.00 0.00 81 1011.9
20260505001035 15 68 3.2 6.4 0.00 0.00 0.00 81 1011.9
20260505000844 15 68 3.2 6.4 0.00 0.00 0.00 81 1012.0
20260505000655 15 68 3.2 6.4 0.00 0.00 0.00 81 1012.0
20260505000507 15 90 3.2 6.4 0.00 0.00 0.00 81 1012.0
20260505000452 15 90 3.2 6.4 0.00 0.00 0.00 81 1012.1
20260505000329 15 90 3.2 6.4 0.00 0.00 0.00 81 1012.0
20260505000145 15 90 3.2 6.4 0.00 0.00 0.00 81 1012.0
20260505000000 15 90 4.8 6.4 0.00 0.00 0.00 81 1012.1
20260504235812 15 90 4.8 8.0 0.00 0.00 0.00 81 1012.0
20260504235630 15 68 4.8 11.3 0.00 0.00 0.00 81 1012.1
20260504235435 15 68 4.8 11.3 0.00 0.00 0.00 81 1012.1
20260504235257 15 68 4.8 11.3 0.00 0.00 0.00 81 1012.1
20260504235105 15 68 3.2 8.0 0.00 0.00 0.00 81 1012.1
20260504234905 15 68 3.2 8.0 0.00 0.00 0.00 81 1012.1
20260504234747 15 90 3.2 8.0 0.00 0.00 0.00 81 1012.1
20260504234725 15 68 3.2 8.0 0.00 0.00 0.00 81 1012.1
20260504234542 15 68 3.2 8.0 0.00 0.00 0.00 81 1012.1
20260504234400 15 68 3.2 8.0 0.00 0.00 0.00 81 1012.1
20260504234215 15 68 3.2 8.0 0.00 0.00 0.00 81 1012.1
20260504234034 15 90 3.2 8.0 0.00 0.00 0.00 82 1012.0
20260504233844 15 90 3.2 8.0 0.00 0.00 0.00 81 1012.1
20260504233705 15 90 3.2 8.0 0.00 0.00 0.00 81 1012.0
20260504233505 15 90 3.2 8.0 0.00 0.00 0.00 81 1012.1
20260504233311 15 90 4.8 8.0 0.00 0.00 0.00 81 1012.0
20260504233115 15 90 4.8 8.0 0.00 0.00 0.00 81 1012.1
20260504232925 15 90 4.8 8.0 0.00 0.00 0.00 81 1012.1
20260504232740 15 90 4.8 8.0 0.00 0.00 0.00 81 1012.1
20260504232600 15 90 4.8 8.0 0.00 0.00 0.00 81 1012.1
20260504232405 15 90 4.8 8.0 0.00 0.00 0.00 80 1012.2
20260504232217 15 68 3.2 8.0 0.00 0.00 0.00 80 1012.1
20260504232018 15 68 3.2 8.0 0.00 0.00 0.00 80 1012.2
20260504231840 15 68 3.2 8.0 0.00 0.00 0.00 80 1012.2
20260504231640 15 68 3.2 4.8 0.00 0.00 0.00 81 1012.3
20260504231505 15 68 3.2 6.4 0.00 0.00 0.00 81 1012.3
20260504231407 15 68 3.2 6.4 0.00 0.00 0.00 81 1012.2
20260504231306 15 68 3.2 6.4 0.00 0.00 0.00 80 1012.4
20260504231129 15 68 3.2 8.0 0.00 0.00 0.00 80 1012.3
20260504230945 15 68 3.2 8.0 0.00 0.00 0.00 80 1012.3
20260504230755 15 68 3.2 8.0 0.00 0.00 0.00 80 1012.3
20260504230605 15 68 3.2 8.0 0.00 0.00 0.00 81 1012.3
20260504230403 15 68 3.2 8.0 0.00 0.00 0.00 80 1012.4
20260504230210 15 90 3.2 4.8 0.00 0.00 0.00 81 1012.3
20260504230025 15 90 3.2 4.8 0.00 0.00 0.00 81 1012.4
20260504225830 15 90 3.2 6.4 0.00 0.00 0.00 80 1012.4
20260504225640 15 90 3.2 6.4 0.00 0.00 0.00 80 1012.3
20260504225527 15 90 3.2 6.4 0.00 0.00 0.00 80 1012.5
20260504225500 15 90 3.2 6.4 0.00 0.00 0.00 80 1012.5
20260504225310 15 90 1.6 3.2 0.00 0.00 0.00 80 1012.4
20260504225124 15 90 1.6 3.2 0.00 0.00 0.00 80 1012.5
20260504224945 15 90 1.6 3.2 0.00 0.00 0.00 80 1012.6
20260504224745 15 90 1.6 3.2 0.00 0.00 0.00 80 1012.4
20260504224549 15 90 1.6 3.2 0.00 0.00 0.00 80 1012.4
20260504224400 15 90 3.2 8.0 0.00 0.00 0.00 80 1012.4
20260504224205 15 90 3.2 8.0 0.00 0.00 0.00 80 1012.4
20260504224020 15 90 3.2 8.0 0.00 0.00 0.00 80 1012.5
20260504223830 15 45 3.2 6.4 0.00 0.00 0.00 80 1012.5
20260504223630 15 45 3.2 8.0 0.00 0.00 0.00 80 1012.5
20260504223450 15 45 3.2 8.0 0.00 0.00 0.00 80 1012.5
20260504223308 15 68 3.2 8.0 0.00 0.00 0.00 80 1012.5
20260504223120 15 68 3.2 8.0 0.00 0.00 0.00 81 1012.5
20260504222929 15 45 1.6 4.8 0.00 0.00 0.00 81 1012.4
20260504222740 15 45 1.6 4.8 0.00 0.00 0.00 81 1012.4
20260504222600 15 45 1.6 8.0 0.00 0.00 0.00 81 1012.4
20260504222418 15 45 1.6 8.0 0.00 0.00 0.00 81 1012.5
20260504222230 15 45 1.6 8.0 0.00 0.00 0.00 81 1012.5
20260504222050 15 45 1.6 3.2 0.00 0.00 0.00 81 1012.5
20260504222012 15 45 1.6 3.2 0.00 0.00 0.00 81 1012.5
20260504221910 15 45 0.0 3.2 0.00 0.00 0.00 81 1012.5
20260504221718 15 45 0.0 4.8 0.00 0.00 0.00 81 1012.5
20260504221542 15 45 1.6 4.8 0.00 0.00 0.00 81 1012.6
20260504221400 15 45 0.0 4.8 0.00 0.00 0.00 80 1012.6
20260504221200 15 45 0.0 3.2 0.00 0.00 0.00 80 1012.5
20260504221020 15 45 0.0 3.2 0.00 0.00 0.00 80 1012.6
20260504220831 15 45 0.0 4.8 0.00 0.00 0.00 80 1012.5
20260504220655 15 45 1.6 4.8 0.00 0.00 0.00 80 1012.6
20260504220510 15 45 1.6 4.8 0.00 0.00 0.00 79 1012.6
20260504220330 15 45 1.6 3.2 0.00 0.00 0.00 79 1012.6
20260504220130 15 45 1.6 8.0 0.00 0.00 0.00 79 1012.6
20260504215947 15 45 1.6 8.0 0.00 0.00 0.00 79 1012.6
20260504215750 15 45 1.6 8.0 0.00 0.00 0.00 79 1012.6
20260504215552 15 45 1.6 6.4 0.00 0.00 0.00 79 1012.6
20260504215415 15 45 1.6 6.4 0.00 0.00 0.00 78 1012.6
20260504215225 15 45 1.6 6.4 0.00 0.00 0.00 78 1012.6
20260504215028 15 45 0.0 3.2 0.00 0.00 0.00 78 1012.6
20260504214838 15 45 0.0 3.2 0.00 0.00 0.00 78 1012.6
20260504214645 15 22 0.0 1.6 0.00 0.00 0.00 78 1012.6
20260504214500 15 22 1.6 1.6 0.00 0.00 0.00 77 1012.7
20260504214428 15 22 1.6 3.2 0.00 0.00 0.00 77 1012.6
20260504214310 16 22 1.6 3.2 0.00 0.00 0.00 77 1012.7
20260504214120 16 22 1.6 3.2 0.00 0.00 0.00 76 1012.6
20260504213945 16 22 1.6 3.2 0.00 0.00 0.00 76 1012.7
20260504213744 16 22 1.6 3.2 0.00 0.00 0.00 76 1012.7
20260504213545 16 22 1.6 3.2 0.00 0.00 0.00 76 1012.7
20260504213348 16 22 3.2 3.2 0.00 0.00 0.00 75 1012.7
20260504213150 16 22 3.2 3.2 0.00 0.00 0.00 75 1012.7
20260504212959 16 22 3.2 8.0 0.00 0.00 0.00 75 1012.7
20260504212756 16 0 3.2 8.0 0.00 0.00 0.00 74 1012.8
20260504212612 16 45 3.2 8.0 0.00 0.00 0.00 74 1012.8
20260504212415 16 45 3.2 6.4 0.00 0.00 0.00 74 1012.8
20260504212225 16 68 3.2 6.4 0.00 0.00 0.00 74 1012.6
20260504212028 16 68 3.2 8.0 0.00 0.00 0.00 74 1012.7
20260504211830 16 45 1.6 8.0 0.00 0.00 0.00 74 1012.8
20260504211630 16 45 1.6 8.0 0.00 0.00 0.00 74 1012.8
20260504211441 16 45 1.6 3.2 0.00 0.00 0.00 74 1012.8
20260504211255 16 45 1.6 3.2 0.00 0.00 0.00 73 1012.8
20260504211221 16 45 1.6 3.2 0.00 0.00 0.00 73 1012.8
20260504211103 16 45 1.6 3.2 0.00 0.00 0.00 73 1012.9
20260504210908 16 45 1.6 6.4 0.00 0.00 0.00 73 1012.7
20260504210720 16 45 1.6 6.4 0.00 0.00 0.00 73 1012.8
20260504210540 16 45 1.6 6.4 0.00 0.00 0.00 72 1012.9
20260504210350 16 45 1.6 6.4 0.00 0.00 0.00 72 1012.8
20260504210215 16 45 1.6 4.8 0.00 0.00 0.00 72 1012.8
20260504210025 16 45 1.6 3.2 0.00 0.00 0.00 72 1012.9
20260504205845 16 45 3.2 3.2 0.00 0.00 0.00 72 1012.8
20260504205655 16 45 3.2 4.8 0.00 0.00 0.00 71 1012.8
20260504205500 16 45 3.2 8.0 0.00 0.00 0.00 71 1012.7
20260504205331 16 45 3.2 8.0 0.00 0.00 0.00 71 1012.7
20260504205305 16 45 3.2 8.0 0.00 0.00 0.00 71 1012.8
20260504205120 16 68 3.2 8.0 0.00 0.00 0.00 71 1012.8
20260504204937 16 22 1.6 8.0 0.00 0.00 0.00 71 1012.6
20260504204750 16 45 1.6 3.2 0.00 0.00 0.00 71 1012.7
20260504204555 17 45 3.2 4.8 0.00 0.00 0.00 71 1012.7
20260504204400 17 45 3.2 4.8 0.00 0.00 0.00 71 1012.8
20260504204220 17 22 3.2 4.8 0.00 0.00 0.00 71 1012.7
20260504204037 17 22 3.2 4.8 0.00 0.00 0.00 70 1012.7
20260504203840 17 22 3.2 6.4 0.00 0.00 0.00 70 1012.8
20260504203651 17 22 3.2 6.4 0.00 0.00 0.00 70 1012.7
20260504203606 17 22 3.2 6.4 0.00 0.00 0.00 70 1012.8
20260504203515 17 45 3.2 6.4 0.00 0.00 0.00 71 1012.8
20260504203330 17 45 1.6 4.8 0.00 0.00 0.00 70 1012.8
20260504203140 17 45 1.6 4.8 0.00 0.00 0.00 71 1012.8
20260504202945 17 45 1.6 4.8 0.00 0.00 0.00 70 1012.8
20260504202805 17 45 1.6 4.8 0.00 0.00 0.00 71 1012.8
20260504202604 17 22 0.0 3.2 0.00 0.00 0.00 70 1012.8
20260504202413 17 22 1.6 3.2 0.00 0.00 0.00 70 1012.8
20260504202230 17 22 1.6 3.2 0.00 0.00 0.00 70 1012.7
20260504202048 17 22 1.6 4.8 0.00 0.00 0.00 70 1012.8
20260504202012 17 22 1.6 4.8 0.00 0.00 0.00 70 1012.8
20260504201910 17 22 1.6 4.8 0.00 0.00 0.00 70 1012.7
20260504201730 17 22 1.6 4.8 0.00 0.00 0.00 70 1012.8
20260504201535 17 22 1.6 3.2 0.00 0.00 0.00 70 1012.7
20260504201341 17 22 1.6 3.2 0.00 0.00 0.00 70 1012.7
20260504201203 17 22 1.6 3.2 0.00 0.00 0.00 70 1012.7
20260504201015 17 45 1.6 3.2 0.00 0.00 0.00 70 1012.6
20260504200819 17 45 1.6 3.2 0.00 0.00 0.00 70 1012.7
20260504200618 17 45 1.6 4.8 0.00 0.00 0.00 70 1012.7
20260504200422 17 45 1.6 4.8 0.00 0.00 0.00 70 1012.7
20260504200240 17 45 1.6 4.8 0.00 0.00 0.00 70 1012.7
20260504200150 17 45 1.6 4.8 0.00 0.00 0.00 69 1012.6
20260504200045 17 45 1.6 4.8 0.00 0.00 0.00 69 1012.7
20260504195900 17 45 1.6 3.2 0.00 0.00 0.00 70 1012.7
20260504195705 17 45 1.6 3.2 0.00 0.00 0.00 70 1012.6
20260504195522 17 0 1.6 8.0 0.00 0.00 0.00 71 1012.7
20260504195345 17 0 0.0 8.0 0.00 0.00 0.00 71 1012.7
20260504195150 17 0 0.0 8.0 0.00 0.00 0.00 71 1012.6
20260504194950 17 0 0.0 0.0 0.00 0.00 0.00 72 1012.7
20260504194800 17 0 0.0 1.6 0.00 0.00 0.00 72 1012.6
20260504194618 17 0 0.0 0.0 0.00 0.00 0.00 72 1012.6
20260504194423 17 0 0.0 0.0 0.00 0.00 0.00 72 1012.6
20260504194342 17 0 0.0 0.0 0.00 0.00 0.00 72 1012.6
20260504194230 17 0 0.0 0.0 0.00 0.00 0.00 72 1012.6
20260504194041 17 0 0.0 0.0 0.00 0.00 0.00 72 1012.6
20260504193855 17 0 0.0 0.0 0.00 0.00 0.00 73 1012.6
20260504193705 17 0 0.0 0.0 0.00 0.00 0.00 72 1012.5
20260504193505 17 0 0.0 0.0 0.00 0.00 0.00 71 1012.6
20260504193310 17 0 0.0 0.0 0.00 0.00 0.00 71 1012.6
20260504193115 17 0 0.0 0.0 0.00 0.00 0.00 71 1012.6
20260504192918 17 0 0.0 0.0 0.00 0.00 0.00 71 1012.6
20260504192742 17 0 0.0 0.0 0.00 0.00 0.00 70 1012.6
20260504192536 17 0 0.0 0.0 0.00 0.00 0.00 69 1012.5
20260504192348 17 0 0.0 0.0 0.00 0.00 0.00 69 1012.6
20260504192211 17 0 0.0 0.0 0.00 0.00 0.00 69 1012.5
20260504192017 17 0 0.0 0.0 0.00 0.00 0.00 69 1012.4
20260504191840 18 0 0.0 0.0 0.00 0.00 0.00 69 1012.4
20260504191700 18 0 0.0 0.0 0.00 0.00 0.00 68 1012.5
20260504191515 18 0 0.0 0.0 0.00 0.00 0.00 68 1012.5
20260504191337 18 0 0.0 0.0 0.00 0.00 0.00 68 1012.5
20260504191144 18 0 0.0 0.0 0.00 0.00 0.00 68 1012.5
20260504191008 18 0 0.0 0.0 0.00 0.00 0.00 68 1012.5
20260504190820 18 0 0.0 0.0 0.00 0.00 0.00 67 1012.6
20260504190640 18 0 0.0 0.0 0.00 0.00 0.00 67 1012.4
20260504190455 18 0 0.0 0.0 0.00 0.00 0.00 67 1012.5
20260504190255 18 0 0.0 0.0 0.00 0.00 0.00 67 1012.5
20260504190115 18 0 0.0 3.2 0.00 0.00 0.00 67 1012.5
20260504185938 18 0 0.0 0.0 0.00 0.00 0.00 66 1012.4
20260504185751 18 0 0.0 0.0 0.00 0.00 0.00 66 1012.4
20260504185555 18 0 0.0 0.0 0.00 0.00 0.00 66 1012.5
20260504185410 18 0 0.0 0.0 0.00 0.00 0.00 66 1012.4
20260504185211 18 0 0.0 0.0 0.00 0.00 0.00 65 1012.5
20260504185155 18 0 0.0 0.0 0.00 0.00 0.00 65 1012.4
20260504185020 19 0 0.0 0.0 0.00 0.00 0.00 65 1012.5
20260504184840 19 0 0.0 0.0 0.00 0.00 0.00 65 1012.5
20260504184655 19 0 0.0 1.6 0.00 0.00 0.00 65 1012.4
20260504184502 19 0 0.0 1.6 0.00 0.00 0.00 65 1012.5
20260504184320 19 0 0.0 1.6 0.00 0.00 0.00 65 1012.4
20260504184135 19 0 0.0 1.6 0.00 0.00 0.00 65 1012.4
20260504183955 19 0 0.0 0.0 0.00 0.00 0.00 65 1012.5
20260504183802 20 0 0.0 0.0 0.00 0.00 0.00 64 1012.5
20260504183610 20 0 0.0 0.0 0.00 0.00 0.00 64 1012.5
20260504183424 20 0 0.0 0.0 0.00 0.00 0.00 63 1012.5
20260504183346 20 0 0.0 0.0 0.00 0.00 0.00 63 1012.4
20260504183230 20 0 0.0 0.0 0.00 0.00 0.00 63 1012.4
20260504183031 20 0 0.0 0.0 0.00 0.00 0.00 63 1012.4
20260504182840 20 0 0.0 0.0 0.00 0.00 0.00 62 1012.4
20260504182650 20 0 0.0 0.0 0.00 0.00 0.00 62 1012.3
20260504182500 20 0 0.0 0.0 0.00 0.00 0.00 61 1012.4
20260504182305 20 0 0.0 0.0 0.00 0.00 0.00 61 1012.4
20260504182125 20 0 0.0 0.0 0.00 0.00 0.00 61 1012.4
20260504181930 20 0 0.0 0.0 0.00 0.00 0.00 60 1012.3
20260504181740 20 0 0.0 0.0 0.00 0.00 0.00 60 1012.4
20260504181540 21 0 0.0 1.6 0.00 0.00 0.00 60 1012.4
20260504181456 21 0 0.0 1.6 0.00 0.00 0.00 60 1012.4
20260504181343 21 0 0.0 1.6 0.00 0.00 0.00 59 1012.5
20260504181204 21 0 0.0 0.0 0.00 0.00 0.00 59 1012.4
20260504181020 21 0 0.0 0.0 0.00 0.00 0.00 58 1012.3
20260504180840 21 0 0.0 0.0 0.00 0.00 0.00 58 1012.3
20260504180648 21 45 0.0 0.0 0.00 0.00 0.00 58 1012.3
20260504180500 21 45 1.6 1.6 0.00 0.00 0.00 57 1012.3
20260504180310 21 45 1.6 1.6 0.00 0.00 0.00 57 1012.3
20260504180125 21 45 1.6 8.0 0.00 0.00 0.00 57 1012.3
20260504175941 21 45 1.6 8.0 0.00 0.00 0.00 56 1012.3
20260504175750 22 45 1.6 8.0 0.00 0.00 0.00 56 1012.3
20260504175605 22 292 1.6 3.2 0.00 0.00 0.00 56 1012.3
20260504175410 22 292 1.6 3.2 0.00 0.00 0.00 56 1012.3
20260504175220 22 270 1.6 3.2 0.00 0.00 0.00 55 1012.2
20260504175029 22 270 1.6 3.2 0.00 0.00 0.00 54 1012.3
20260504174844 22 270 3.2 8.0 0.00 0.00 0.00 54 1012.2
20260504174645 23 270 3.2 8.0 0.00 0.00 0.00 54 1012.2
20260504174442 23 68 3.2 8.0 0.00 0.00 0.00 53 1012.1
20260504174300 23 315 3.2 4.8 0.00 0.00 0.00 53 1012.2
20260504174223 23 315 3.2 4.8 0.00 0.00 0.00 53 1012.2
20260504174114 23 248 3.2 9.7 0.00 0.00 0.00 53 1012.2
20260504173920 23 270 3.2 9.7 0.00 0.00 0.00 51 1012.2
20260504173730 23 22 3.2 9.7 0.00 0.00 0.00 51 1012.1
20260504173535 23 315 1.6 6.4 0.00 0.00 0.00 50 1012.1
20260504173355 23 45 1.6 6.4 0.00 0.00 0.00 50 1012.2
20260504173215 23 45 3.2 8.0 0.00 0.00 0.00 50 1012.2
20260504173025 23 270 3.2 8.0 0.00 0.00 0.00 51 1012.2
20260504172841 23 45 3.2 8.0 0.00 0.00 0.00 51 1012.2
20260504172655 23 292 3.2 8.0 0.00 0.00 0.00 50 1012.1
20260504172520 23 338 3.2 8.0 0.00 0.00 0.00 51 1012.2
20260504172455 23 338 3.2 8.0 0.00 0.00 0.00 51 1012.2
20260504172300 23 45 3.2 8.0 0.00 0.00 0.00 51 1012.1
20260504172115 23 292 3.2 8.0 0.00 0.00 0.00 52 1012.2
20260504171930 23 292 3.2 8.0 0.00 0.00 0.00 51 1012.2
20260504171750 23 45 3.2 8.0 0.00 0.00 0.00 51 1012.1
20260504171605 23 0 4.8 8.0 0.00 0.00 0.00 51 1012.2
20260504171415 23 338 3.2 6.4 0.00 0.00 0.00 51 1012.2
20260504171225 23 338 4.8 8.0 0.00 0.00 0.00 52 1012.2
20260504171033 23 315 4.8 8.0 0.00 0.00 0.00 53 1012.1
20260504170957 23 292 4.8 8.0 0.00 0.00 0.00 53 1012.1
20260504170855 23 292 4.8 8.0 0.00 0.00 0.00 53 1012.2
20260504170700 23 292 3.2 8.0 0.00 0.00 0.00 52 1012.2
20260504170500 23 338 3.2 8.0 0.00 0.00 0.00 51 1012.2
20260504170310 23 338 4.8 9.7 0.00 0.00 0.00 50 1012.1
20260504170130 23 68 4.8 9.7 0.00 0.00 0.00 50 1012.1
20260504160420 22 315 6.4 8.0 0.00 0.00 0.00 49 1012.1
20260504160225 22 248 6.4 8.0 0.00 0.00 0.00 51 1012.2
20260504151126 23 292 6.4 11.3 0.00 0.00 0.00 50 1012.2
20260504151101 23 270 6.4 11.3 0.00 0.00 0.00 50 1012.2
20260504150925 23 270 6.4 9.7 0.00 0.00 0.00 50 1012.3
20260504150728 23 292 6.4 11.3 0.00 0.00 0.00 49 1012.3
20260504150548 23 292 6.4 11.3 0.00 0.00 0.00 49 1012.3
20260504150359 23 292 6.4 11.3 0.00 0.00 0.00 48 1012.3
20260504150215 23 270 4.8 9.7 0.00 0.00 0.00 47 1012.3
20260504141300 22 248 8.0 16.1 0.00 0.00 0.00 53 1012.8
20260504141110 22 292 6.4 14.5 0.00 0.00 0.00 52 1012.7
20260504140925 23 248 6.4 14.5 0.00 0.00 0.00 53 1012.7
20260504140740 23 225 6.4 14.5 0.00 0.00 0.00 53 1012.7
20260504140637 23 225 6.4 14.5 0.00 0.00 0.00 51 1012.7
20260504140548 23 270 4.8 11.3 0.00 0.00 0.00 50 1012.7
20260504140405 23 292 4.8 9.7 0.00 0.00 0.00 49 1012.7
20260504140225 23 315 6.4 12.9 0.00 0.00 0.00 49 1012.7
20260504130820 21 270 8.0 11.3 0.00 0.00 0.00 60 1012.9
20260504130625 21 270 8.0 11.3 0.00 0.00 0.00 61 1013.0
20260504130431 21 248 8.0 12.9 0.00 0.00 0.00 60 1013.0
20260504130240 21 270 8.0 14.5 0.00 0.00 0.00 60 1013.0
20260504120236 22 248 9.7 16.1 0.00 0.00 0.00 49 1013.0
20260504110644 22 225 9.7 16.1 0.00 0.00 0.00 51 1013.1
20260504110455 22 270 11.3 16.1 0.00 0.00 0.00 52 1013.0
20260504110300 22 225 9.7 17.7 0.00 0.00 0.00 52 1013.1
20260504110110 22 248 9.7 17.7 0.00 0.00 0.00 52 1013.1
20260504100450 21 315 11.3 17.7 0.00 0.00 0.00 56 1013.4
20260504100250 21 248 11.3 17.7 0.00 0.00 0.00 55 1013.6
20260504081949 20 270 8.0 11.3 0.00 0.00 0.00 62 1013.6
20260504081810 20 292 8.0 11.3 0.00 0.00 0.00 64 1013.6
20260504081625 20 292 9.7 16.1 0.00 0.00 0.00 63 1013.4
20260504081435 20 292 9.7 16.1 0.00 0.00 0.00 64 1013.5
20260504081258 20 248 9.7 12.9 0.00 0.00 0.00 63 1013.5
20260504081119 20 225 8.0 14.5 0.00 0.00 0.00 62 1013.5
20260504081029 20 315 9.7 14.5 0.00 0.00 0.00 64 1013.4
20260504080940 20 248 9.7 14.5 0.00 0.00 0.00 65 1013.4
20260504080750 20 270 9.7 16.1 0.00 0.00 0.00 64 1013.5
20260504080600 20 292 9.7 16.1 0.00 0.00 0.00 65 1013.5
20260504080410 19 270 8.0 16.1 0.00 0.00 0.00 63 1013.4
20260504080225 19 225 8.0 14.5 0.00 0.00 0.00 65 1013.4
20260504070335 18 292 8.0 12.9 0.00 0.00 0.00 66 1013.0
20260504070248 18 270 6.4 12.9 0.00 0.00 0.00 66 1013.0
20260504070136 18 270 6.4 12.9 0.00 0.00 0.00 66 1012.9
20260504060210 17 270 8.0 11.3 0.00 0.00 0.00 67 1012.8
20260504050730 16 202 3.2 6.4 0.00 0.00 0.00 67 1012.3
20260504050530 16 202 3.2 8.0 0.00 0.00 0.00 67 1012.4
20260504050344 16 270 3.2 8.0 0.00 0.00 0.00 67 1012.4
20260504050145 16 225 3.2 8.0 0.00 0.00 0.00 67 1012.4
20260504045955 16 225 3.2 8.0 0.00 0.00 0.00 67 1012.3
20260504045755 16 225 3.2 8.0 0.00 0.00 0.00 67 1012.2
20260504045600 16 270 3.2 6.4 0.00 0.00 0.00 67 1012.2
20260504045411 16 270 3.2 6.4 0.00 0.00 0.00 67 1012.2
20260504045223 16 270 3.2 6.4 0.00 0.00 0.00 67 1012.1